CW8053 Weather Reports


time (UTC)temp
C
wind
direction
speed
KPH
gust
KPH
rain 1hr
cm
rain 24hr
cm
rain mn
cm
humidity
%
barometer
mb
20260505223534 16 177 4.8 11.3 0.28 3.89 0.28 86 1011.8
20260505222638 16 214 3.2 8.0 0.28 3.89 0.28 85 1011.8
20260505221734 16 223 3.2 6.4 0.18 3.78 0.18 85 1012.0
20260505220834 16 0 0.0 0.0 0.00 3.61 0.00 83 1011.9
20260505215956 16 0 0.0 0.0 0.00 3.61 0.00 83 1011.9
20260505215337 16 113 1.6 1.6 0.00 3.61 3.61 83 1011.9
20260505214435 16 0 0.0 0.0 0.00 3.61 3.61 83 1011.9
20260505213534 16 216 1.6 3.2 0.00 3.61 3.61 82 1012.2
20260505212657 16 130 0.0 1.6 0.00 3.61 3.61 82 1012.3
20260505211735 16 124 3.2 4.8 0.00 3.61 3.61 82 1012.3
20260505210838 16 135 1.6 1.6 0.00 3.61 3.61 83 1012.3
20260505205934 16 61 0.0 1.6 0.00 3.61 3.61 83 1012.5
20260505205355 16 132 1.6 3.2 0.00 3.61 3.61 83 1012.4
20260505204435 16 0 0.0 0.0 0.00 3.61 3.61 84 1012.4
20260505203535 16 14 0.0 1.6 0.00 3.61 3.61 84 1012.6
20260505202636 16 209 1.6 3.2 0.00 3.61 3.61 84 1012.7
20260505201735 16 206 0.0 1.6 0.00 3.61 3.61 84 1012.6
20260505200842 16 233 1.6 3.2 0.00 3.61 3.61 84 1012.5
20260505195935 16 247 0.0 3.2 0.00 3.61 3.61 84 1012.6
20260505195334 16 211 0.0 1.6 0.00 3.61 3.61 84 1012.7
20260505194435 16 214 4.8 8.0 0.00 3.61 3.61 84 1012.7
20260505193538 16 213 4.8 6.4 0.00 3.61 3.61 84 1012.5
20260505192634 16 202 1.6 3.2 0.00 3.61 3.61 84 1012.5
20260505191735 16 223 1.6 4.8 0.00 3.61 3.61 84 1012.5
20260505190836 16 0 0.0 0.0 0.00 3.61 3.61 84 1012.4
20260505185935 16 0 0.0 0.0 0.00 3.61 3.61 84 1012.3
20260505185338 16 44 0.0 1.6 0.00 3.61 3.61 83 1012.2
20260505184434 16 0 0.0 0.0 0.00 3.61 3.61 83 1012.2
20260505183535 16 100 0.0 1.6 0.00 3.61 3.61 83 1012.3
20260505182634 16 218 1.6 4.8 0.00 3.61 3.61 83 1012.4
20260505181734 16 147 4.8 8.0 0.00 3.61 3.61 84 1012.4
20260505180855 16 320 0.0 1.6 0.00 3.61 3.61 83 1012.3
20260505175956 16 227 3.2 8.0 0.00 3.61 3.61 83 1012.3
20260505175334 16 216 4.8 6.4 0.00 3.61 3.61 83 1012.3
20260505174437 16 230 0.0 1.6 0.00 3.61 3.61 83 1012.3
20260505173534 16 0 0.0 0.0 0.00 3.61 3.61 83 1012.2
20260505172634 16 221 0.0 3.2 0.00 3.61 3.61 83 1012.2
20260505171737 16 222 3.2 4.8 0.00 3.61 3.61 83 1012.3
20260505170835 16 196 3.2 4.8 0.00 3.61 3.61 83 1012.2
20260505165955 17 216 3.2 9.7 0.00 3.61 3.61 82 1012.2
20260505165355 17 221 4.8 9.7 0.00 3.61 3.61 82 1012.3
20260505164434 17 245 3.2 8.0 0.00 3.61 3.61 80 1012.3
20260505163555 17 227 4.8 8.0 0.00 3.61 3.61 81 1012.2
20260505162634 17 262 1.6 3.2 0.00 3.61 3.61 80 1012.2
20260505161756 18 237 3.2 6.4 0.00 3.61 3.61 79 1012.2
20260505160841 18 201 4.8 8.0 0.00 3.61 3.61 79 1012.2
20260505152636 17 190 3.2 6.4 0.00 3.61 3.61 80 1012.5
20260505151756 17 193 1.6 3.2 0.00 3.61 3.61 80 1012.6
20260505150835 17 280 3.2 6.4 0.00 3.61 3.61 79 1012.5
20260505124435 18 288 1.6 3.2 0.00 3.61 3.61 80 1012.5
20260505123534 17 337 0.0 3.2 0.00 3.61 3.61 78 1012.7
20260505122637 17 0 0.0 0.0 0.00 3.61 3.61 78 1012.7
20260505121734 17 0 0.0 0.0 0.00 3.61 3.61 79 1012.7
20260505120834 17 315 1.6 3.2 0.00 3.61 3.61 80 1012.7
20260505115936 17 306 1.6 6.4 0.00 3.61 3.61 80 1012.7
20260505115334 17 334 1.6 4.8 0.00 3.61 3.61 79 1012.7
20260505114435 17 321 1.6 3.2 0.00 3.61 3.61 80 1012.7
20260505113535 16 318 1.6 4.8 0.00 3.61 3.61 81 1012.7
20260505112634 16 323 1.6 3.2 0.00 3.61 3.61 81 1012.8
20260505111734 16 318 0.0 1.6 0.00 3.61 3.61 81 1012.8
20260505110837 16 291 1.6 6.4 0.00 3.61 3.61 80 1012.9
20260505101736 13 348 3.2 6.4 0.03 3.61 3.61 88 1012.9
20260505100835 14 1 4.8 8.0 0.03 3.61 3.61 90 1012.9
20260505095935 14 322 3.2 9.7 0.03 3.61 3.61 91 1012.9
20260505095356 13 347 1.6 4.8 0.03 3.61 3.61 91 1012.9
20260505094449 13 343 6.4 12.9 0.03 3.61 3.61 88 1012.9
20260505093534 13 341 4.8 9.7 0.00 3.58 3.58 87 1012.8
20260505092634 13 340 3.2 9.7 0.00 3.58 3.58 87 1012.7
20260505091734 13 20 1.6 11.3 0.00 3.58 3.58 88 1012.5
20260505090834 13 5 0.0 4.8 0.00 3.58 3.58 87 1012.5
20260505085934 13 350 3.2 6.4 0.00 3.58 3.58 88 1012.6
20260505085334 13 359 4.8 14.5 0.00 3.58 3.58 89 1012.5
20260505084456 13 333 1.6 3.2 0.00 3.58 3.58 90 1012.5
20260505083534 13 324 3.2 6.4 0.00 3.58 3.58 92 1012.3
20260505082634 13 335 1.6 6.4 0.00 3.58 3.58 94 1012.3
20260505081734 13 332 3.2 9.7 0.00 3.58 3.58 95 1012.4
20260505080834 13 359 1.6 8.0 0.00 3.58 3.58 96 1012.3
20260505075956 13 352 1.6 3.2 0.00 3.58 3.58 96 1012.1
20260505075355 13 312 1.6 4.8 0.00 3.58 3.58 96 1012.0
20260505074517 13 330 1.6 6.4 0.03 3.58 3.58 96 1012.2
20260505073535 13 315 1.6 9.7 0.03 3.58 3.58 96 1012.3
20260505072634 13 15 1.6 4.8 0.05 3.58 3.58 96 1012.4
20260505071755 13 326 1.6 6.4 0.15 3.58 3.58 96 1012.4
20260505070855 12 345 3.2 9.7 0.28 3.58 3.58 96 1012.3
20260505065935 12 340 3.2 6.4 0.33 3.58 3.58 96 1012.2
20260505065334 12 333 1.6 4.8 0.41 3.58 3.58 96 1012.3
20260505064437 12 333 1.6 4.8 0.51 3.56 3.56 95 1012.3
20260505063534 12 315 4.8 6.4 0.76 3.56 3.56 95 1012.1
20260505062634 12 342 4.8 12.9 0.99 3.53 3.53 95 1011.6
20260505061734 12 25 3.2 4.8 1.09 3.43 3.43 95 1011.5
20260505060835 12 338 4.8 19.3 1.09 3.30 3.30 95 1011.3
20260505055934 12 305 4.8 9.7 1.09 3.25 3.25 95 1011.0
20260505055334 12 302 8.0 16.1 1.04 3.17 3.17 95 1010.9
20260505054442 12 338 4.8 19.3 0.99 3.05 3.05 95 1011.2
20260505053536 12 344 3.2 8.0 0.91 2.79 2.79 95 1012.3
20260505052634 12 318 3.2 6.4 0.89 2.57 2.57 95 1012.1
20260505051734 12 355 4.8 20.9 0.79 2.31 2.31 95 1011.8
20260505050834 12 326 3.2 8.0 0.89 2.21 2.21 95 1011.8
20260505041738 12 267 0.0 1.6 0.81 1.52 1.55 94 1011.8
20260505040835 13 240 1.6 4.8 0.76 1.35 1.35 94 1011.6
20260505035935 13 62 1.6 4.8 0.53 1.09 1.09 93 1011.8
20260505035334 13 231 0.0 3.2 0.53 1.07 1.07 93 1011.6
20260505034434 13 330 0.0 1.6 0.48 0.97 0.97 92 1011.4
20260505033534 13 276 1.6 3.2 0.41 0.84 0.84 92 1011.6
20260505032655 13 20 3.2 8.0 0.43 0.79 0.79 92 1011.9
20260505031734 13 355 1.6 3.2 0.38 0.71 0.71 92 1012.0
20260505030834 13 0 0.0 0.0 0.30 0.58 0.58 91 1012.2
20260505025935 13 0 0.0 0.0 0.30 0.53 0.53 90 1012.5
20260505025355 13 349 0.0 1.6 0.28 0.51 0.51 89 1012.6
20260505024434 13 0 0.0 0.0 0.28 0.48 0.48 89 1012.6
20260505023534 13 0 0.0 0.0 0.25 0.43 0.43 87 1012.8
20260505022637 13 0 0.0 0.0 0.23 0.38 0.38 86 1013.0
20260505021734 13 12 1.6 4.8 0.18 0.33 0.33 85 1013.1
20260505020834 13 9 0.0 1.6 0.18 0.28 0.28 85 1013.1
20260505015934 13 0 0.0 0.0 0.18 0.23 0.23 84 1013.2
20260505015335 14 0 0.0 0.0 0.20 0.23 0.23 84 1013.2
20260505014436 14 0 0.0 0.0 0.20 0.20 0.20 83 1013.4
20260505013534 14 0 0.0 0.0 0.18 0.18 0.18 82 1013.5
20260505012639 14 0 0.0 0.0 0.15 0.15 0.15 81 1013.6
20260505011742 14 0 0.0 0.0 0.15 0.15 0.15 79 1013.7
20260505010834 15 29 0.0 3.2 0.10 0.10 0.10 78 1013.9
20260505005935 15 28 3.2 4.8 0.05 0.05 0.05 76 1014.1
20260505005334 15 49 1.6 1.6 0.05 0.05 0.05 75 1014.2
20260505004446 16 0 0.0 0.0 0.00 0.00 0.00 73 1014.3
20260505003535 16 81 1.6 3.2 0.00 0.00 0.00 72 1014.4
20260505002634 16 155 1.6 1.6 0.00 0.00 0.00 70 1014.5
20260505001735 16 337 1.6 6.4 0.00 0.00 0.00 69 1014.6
20260505000855 16 34 0.0 1.6 0.00 0.00 0.00 70 1014.8
20260504235934 16 0 0.0 0.0 0.00 0.00 0.00 70 1014.9
20260504235334 16 0 0.0 0.0 0.00 0.00 0.00 70 1015.0
20260504234434 16 0 0.0 0.0 0.00 0.00 0.00 70 1015.1
20260504233534 16 75 0.0 1.6 0.00 0.00 0.00 70 1015.2
20260504232636 16 117 1.6 3.2 0.00 0.00 0.00 69 1015.5
20260504231734 16 328 0.0 1.6 0.00 0.00 0.00 70 1015.6
20260504230834 16 57 0.0 4.8 0.00 0.00 0.00 71 1015.7
20260504225935 16 0 0.0 0.0 0.00 0.00 0.00 71 1015.8
20260504225356 16 0 0.0 0.0 0.00 0.00 0.00 71 1015.9
20260504224435 16 53 0.0 1.6 0.00 0.00 0.00 72 1016.0